Location: BGSU Observatory
(41.3799°N, 83.6397°W)
Time: 01:44:40
(UTC-04:00)

Amateur Radio Satellites - All Passes

Search period start: 01 August 2014 01:14
Search period end: 02 August 2014 01:14
Location: BGSU Observatory, 41.3799°N, 83.6397°W

Satellite Date Start Highest point End Downlink Frequencies (MHz)
Time Altitude Azimuth
ISS 01 Aug 01:17:19 01:19:52 20° 343° (NNW) 01:22:25 145.800 FM
PCSat 01 Aug 01:28:52 01:34:13 61° 302° (WNW) 01:39:36 145.825 MHz
Oscar 10/S400 01 Aug 01:31:32 02:05:09 64° 184° (S) 11:07:35 145.825 - 145.975 CW/USB, Beacon 145.810 USB
Oscar 16 01 Aug 01:47:36 01:49:18 12° 89° (E) 01:51:00 437.025 USB, Beacon 2401.1428
Uribyol 2 01 Aug 02:32:48 02:35:38 15° 91° (E) 02:38:27 436.500 FM
AO-27 01 Aug 02:34:17 02:37:06 15° 90° (E) 02:39:55 436.795 MHz FM
JAS-1B 01 Aug 02:35:47 02:41:06 17° 82° (E) 02:45:58 435.800 - 435.900 CW/SSB
Sapphire 01 Aug 02:41:01 02:45:02 21° 315° (NW) 02:49:04 437.095 MHz 1200 baud AX-25 AFSK
AO-Echo 01 Aug 02:47:14 02:50:52 20° 92° (E) 02:54:23 ?
Oscar 19 01 Aug 02:55:09 03:00:13 51° 100° (E) 03:05:15 437.125 CW, 437.150 USB
ISS 01 Aug 02:55:35 02:57:32 14° 4° (N) 02:59:30 145.800 FM
Gurwin Techsat 1B 01 Aug 03:14:46 03:17:45 15° 90° (E) 03:20:43 435.225 FM
PCSat 01 Aug 03:16:39 03:18:47 12° 323° (NW) 03:20:56 145.825 MHz
OPAL 01 Aug 03:18:59 03:21:39 15° 58° (ENE) 03:24:20 ?
Oscar 16 01 Aug 03:24:04 03:29:15 82° 285° (WNW) 03:34:26 437.025 USB, Beacon 2401.1428
ITAMSAT 1 01 Aug 03:51:46 03:56:58 79° 103° (ESE) 04:02:08 435.822 SSB
Uribyol 2 01 Aug 04:10:26 04:15:34 66° 287° (WNW) 04:20:40 436.500 FM
AO-27 01 Aug 04:11:56 04:17:06 67° 287° (WNW) 04:22:12 436.795 MHz FM
JAS-1B 01 Aug 04:23:52 04:33:12 84° 104° (ESE) 04:41:00 435.800 - 435.900 CW/SSB
AO-Echo 01 Aug 04:25:05 04:29:53 46° 289° (WNW) 04:34:31 ?
TMSAT-1 01 Aug 04:26:23 04:31:33 51° 100° (E) 04:36:41 436.925 FM
ISS 01 Aug 04:32:06 04:35:05 28° 24° (NNE) 04:38:03 145.800 FM
Oscar 19 01 Aug 04:35:25 04:39:10 21° 297° (WNW) 04:42:55 437.125 CW, 437.150 USB
PANSAT 01 Aug 04:36:57 04:37:25 10° 171° (S) 04:37:52 not established
Uosat F 01 Aug 04:47:21 04:50:33 17° 92° (E) 04:53:45 435.120 FM
Gurwin Techsat 1B 01 Aug 04:52:55 04:58:12 68° 287° (WNW) 05:03:27 435.225 FM
OPAL 01 Aug 04:55:01 04:59:56 73° 255° (WSW) 05:04:54 ?
Oscar 16 01 Aug 05:06:23 05:07:46 11° 302° (WNW) 05:09:09 437.025 USB, Beacon 2401.1428
AO-7 01 Aug 05:30:59 05:38:55 46° 100° (E) 05:46:45 29.400 - 29.500 MHz
ITAMSAT 1 01 Aug 05:33:12 05:35:47 14° 301° (WNW) 05:38:21 435.822 SSB
STRAND 1 01 Aug 05:49:50 05:50:23 10° 57° (ENE) 05:50:55 ?
TMSAT-1 01 Aug 06:07:11 06:11:05 21° 297° (WNW) 06:14:58 436.925 FM
ISS 01 Aug 06:08:40 06:11:54 44° 221° (SW) 06:15:07 145.800 FM
KITSAT 1 01 Aug 06:13:29 06:21:22 59° 114° (ESE) 06:29:17 435.175 FM
PANSAT 01 Aug 06:15:20 06:16:48 12° 184° (S) 06:18:16 not established
JAS-1B 01 Aug 06:15:28 06:22:26 25° 307° (NW) 06:28:44 435.800 - 435.900 CW/SSB
MaSat-1 01 Aug 06:17:36 06:22:38 42° 57° (ENE) 06:27:22 437.345 MHz
Uosat F 01 Aug 06:24:47 06:29:41 55° 288° (WNW) 06:34:33 435.120 FM
Hamsat 01 Aug 06:35:30 06:38:17 17° 92° (E) 06:41:03 145.90 MHz
Saudisat 1A 01 Aug 07:03:50 07:07:46 32° 115° (ESE) 07:11:43 436.775 MHz
STRAND 1 01 Aug 07:23:33 07:28:40 77° 74° (ENE) 07:33:50 ?
AO-7 01 Aug 07:23:57 07:31:36 42° 299° (WNW) 07:39:11 29.400 - 29.500 MHz
JAS-2 01 Aug 07:47:09 07:52:56 66° 101° (E) 07:58:10 435.800 - 435.900 CW/SSB, 435.910 FM
SO-67 01 Aug 07:51:51 07:53:52 15° 92° (E) 07:55:52 435.3500 MHz FM
MaSat-1 01 Aug 07:55:24 07:59:42 26° 256° (WSW) 08:03:45 437.345 MHz
Sapphire 01 Aug 08:02:41 08:04:22 11° 35° (NE) 08:06:02 437.095 MHz 1200 baud AX-25 AFSK
KITSAT 1 01 Aug 08:09:49 08:17:09 36° 315° (NW) 08:24:32 435.175 FM
Hamsat 01 Aug 08:10:20 08:14:26 43° 288° (WNW) 08:18:33 145.90 MHz
PCSat 01 Aug 08:34:17 08:38:08 19° 44° (NE) 08:41:58 145.825 MHz
Saudisat 1A 01 Aug 08:43:28 08:47:21 29° 312° (NW) 08:51:15 436.775 MHz
STRAND 1 01 Aug 09:06:18 09:08:25 12° 271° (W) 09:10:33 ?
SO-67 01 Aug 09:23:56 09:27:01 30° 288° (WNW) 09:30:05 435.3500 MHz FM
JAS-2 01 Aug 09:33:39 09:37:19 17° 302° (WNW) 09:40:46 435.800 - 435.900 CW/SSB, 435.910 FM
Sapphire 01 Aug 09:43:42 09:49:02 55° 57° (ENE) 09:54:21 437.095 MHz 1200 baud AX-25 AFSK
HO-68 01 Aug 10:05:04 10:11:40 39° 98° (E) 10:18:13 435.675 MHz FM
KITSAT 1 01 Aug 10:11:45 10:15:25 13° 342° (NNW) 10:19:06 435.175 FM
PCSat 01 Aug 10:16:43 10:22:10 76° 243° (WSW) 10:27:33 145.825 MHz
UKube-1 01 Aug 10:40:59 10:45:13 48° 100° (E) 10:49:24 145.840 MHz, 145.915 MHz
Oscar 11 01 Aug 11:22:06 11:26:28 76° 102° (ESE) 11:30:48 145.825 FM, Beacon 2401.500 USB
Sapphire 01 Aug 11:28:04 11:32:01 21° 254° (WSW) 11:35:58 437.095 MHz 1200 baud AX-25 AFSK
HO-68 01 Aug 11:52:46 11:59:21 42° 296° (WNW) 12:05:55 435.675 MHz FM
FUNcube-1 01 Aug 11:53:40 11:57:50 61° 101° (E) 12:02:02 145.950 - 145.970 MHz USB
KITSAT 1 01 Aug 12:12:07 12:15:15 12° 14° (NNE) 12:18:23 435.175 FM
UKube-1 01 Aug 12:18:20 12:21:01 16° 296° (WNW) 12:23:42 145.840 MHz, 145.915 MHz
SO-50 01 Aug 12:31:49 12:36:15 72° 120° (ESE) 12:40:47 436.795 FM
Oscar 11 01 Aug 13:00:58 13:02:01 11° 299° (WNW) 13:03:04 145.825 FM, Beacon 2401.500 USB
Oscar 16 01 Aug 13:03:57 13:07:25 19° 62° (ENE) 13:10:55 437.025 USB, Beacon 2401.1428
JAS-1B 01 Aug 13:19:21 13:25:37 20° 50° (NE) 13:32:03 435.800 - 435.900 CW/SSB
RS-15 01 Aug 13:22:31 13:33:17 58° 113° (ESE) 13:43:50 29.354 - 29.394 USB, Beacon 29.352 USB
FUNcube-1 01 Aug 13:32:03 13:33:45 12° 297° (WNW) 13:35:27 145.950 - 145.970 MHz USB
ITAMSAT 1 01 Aug 13:33:05 13:36:11 16° 61° (ENE) 13:39:17 435.822 SSB
Uribyol 2 01 Aug 13:50:22 13:54:27 24° 65° (ENE) 13:58:32 436.500 FM
AO-27 01 Aug 13:52:05 13:56:12 24° 64° (ENE) 14:00:19 436.795 MHz FM
AO-Echo 01 Aug 13:59:36 14:04:06 29° 67° (ENE) 14:08:36 ?
KITSAT 1 01 Aug 14:06:44 14:13:48 32° 42° (NE) 14:20:49 435.175 FM
UOSAT-12 01 Aug 14:11:53 14:16:21 55° 118° (ESE) 14:20:56 437.025 FM, 437.400 FM
TMSAT-1 01 Aug 14:11:59 14:13:25 11° 57° (ENE) 14:14:52 436.925 FM
Oscar 19 01 Aug 14:12:07 14:17:12 75° 74° (ENE) 14:22:20 437.125 CW, 437.150 USB
SO-50 01 Aug 14:14:21 14:17:20 17° 320° (NW) 14:20:21 436.795 FM
Gurwin Techsat 1B 01 Aug 14:35:32 14:39:48 25° 65° (ENE) 14:44:04 435.225 FM
Oscar 16 01 Aug 14:41:19 14:46:19 56° 259° (W) 14:51:23 437.025 USB, Beacon 2401.1428
AO-7 01 Aug 14:42:38 14:46:44 15° 45° (NE) 14:50:50 29.400 - 29.500 MHz
JAS-1B 01 Aug 15:05:15 15:14:20 73° 71° (ENE) 15:24:13 435.800 - 435.900 CW/SSB
ITAMSAT 1 01 Aug 15:09:54 15:15:06 69° 258° (WSW) 15:20:18 435.822 SSB
Uribyol 2 01 Aug 15:28:44 15:33:39 43° 261° (W) 15:38:36 436.500 FM
Saudisat 1A 01 Aug 15:30:19 15:34:11 29° 47° (NE) 15:38:01 436.775 MHz
AO-27 01 Aug 15:30:29 15:35:26 44° 261° (W) 15:40:25 436.795 MHz FM
RS-15 01 Aug 15:35:28 15:45:56 46° 317° (NW) 15:56:21 29.354 - 29.394 USB, Beacon 29.352 USB
AO-Echo 01 Aug 15:37:48 15:42:42 37° 263° (W) 15:47:37 ?
TMSAT-1 01 Aug 15:47:10 15:52:28 80° 75° (ENE) 15:57:47 436.925 FM
UOSAT-12 01 Aug 15:53:15 15:56:50 22° 317° (NW) 16:00:29 437.025 FM, 437.400 FM
Oscar 19 01 Aug 15:54:54 15:57:05 13° 271° (W) 15:59:17 437.125 CW, 437.150 USB
Uosat F 01 Aug 16:00:28 16:04:32 25° 65° (ENE) 16:08:36 435.120 FM
KITSAT 1 01 Aug 16:01:49 16:09:51 70° 244° (WSW) 16:17:49 435.175 FM
Gurwin Techsat 1B 01 Aug 16:14:29 16:19:30 43° 262° (W) 16:24:34 435.225 FM
AO-7 01 Aug 16:29:41 16:37:52 62° 66° (ENE) 16:46:04 29.400 - 29.500 MHz
JAS-1B 01 Aug 16:57:53 17:05:30 30° 271° (W) 17:13:45 435.800 - 435.900 CW/SSB
OPAL 01 Aug 17:05:00 17:09:25 29° 98° (E) 17:13:51 ?
Saudisat 1A 01 Aug 17:09:50 17:13:46 32° 245° (WSW) 17:17:41 436.775 MHz
Hamsat 01 Aug 17:30:24 17:32:10 12° 63° (ENE) 17:33:55 145.90 MHz
TMSAT-1 01 Aug 17:30:51 17:32:59 12° 271° (W) 17:35:07 436.925 FM
Uosat F 01 Aug 17:38:23 17:43:06 39° 262° (W) 17:47:50 435.120 FM
RS-15 01 Aug 17:54:14 18:02:05 21° 349° (N) 18:09:58 29.354 - 29.394 USB, Beacon 29.352 USB
JAS-2 01 Aug 17:57:40 18:04:25 36° 66° (ENE) 18:10:42 435.800 - 435.900 CW/SSB, 435.910 FM
KITSAT 1 01 Aug 18:00:56 18:03:45 12° 262° (W) 18:06:35 435.175 FM
AO-7 01 Aug 18:24:02 18:31:04 30° 265° (W) 18:38:10 29.400 - 29.500 MHz
OPAL 01 Aug 18:43:43 18:48:18 35° 294° (WNW) 18:52:56 ?
Hamsat 01 Aug 19:03:29 19:07:36 60° 260° (W) 19:11:47 145.90 MHz
SO-50 01 Aug 19:24:32 19:26:32 12° 35° (NE) 19:28:33 436.795 FM
STRAND 1 01 Aug 19:34:46 19:38:58 25° 95° (E) 19:43:08 ?
JAS-2 01 Aug 19:41:45 19:49:13 50° 261° (W) 19:56:10 435.800 - 435.900 CW/SSB, 435.910 FM
SO-67 01 Aug 19:56:31 19:59:59 83° 77° (ENE) 20:03:28 435.3500 MHz FM
MaSat-1 01 Aug 20:10:21 20:12:49 15° 99° (E) 20:15:29 437.345 MHz
RS-15 01 Aug 20:10:46 20:19:40 27° 25° (NNE) 20:28:42 29.354 - 29.394 USB, Beacon 29.352 USB
HO-68 01 Aug 20:34:13 20:40:15 31° 61° (ENE) 20:46:17 435.675 MHz FM
SO-50 01 Aug 21:03:15 21:08:00 66° 55° (NE) 21:12:48 436.795 FM
STRAND 1 01 Aug 21:13:33 21:18:15 38° 291° (WNW) 21:22:55 ?
UKube-1 01 Aug 21:36:31 21:40:39 43° 71° (ENE) 21:44:48 145.840 MHz, 145.915 MHz
MaSat-1 01 Aug 21:45:20 21:49:27 53° 300° (WNW) 21:54:13 437.345 MHz
Oscar 11 01 Aug 22:17:04 22:21:18 59° 74° (ENE) 22:25:33 145.825 FM, Beacon 2401.500 USB
HO-68 01 Aug 22:20:36 22:27:35 55° 259° (WSW) 22:34:36 435.675 MHz FM
RS-15 01 Aug 22:23:21 22:34:24 71° 54° (NE) 22:45:50 29.354 - 29.394 USB, Beacon 29.352 USB
UOSAT-12 01 Aug 22:41:26 22:46:02 49° 52° (NE) 22:50:34 437.025 FM, 437.400 FM
SO-50 01 Aug 22:45:20 22:48:04 15° 251° (WSW) 22:50:48 436.795 FM
FUNcube-1 01 Aug 22:50:14 22:54:22 49° 73° (ENE) 22:58:26 145.950 - 145.970 MHz USB
ISS 01 Aug 22:50:40 22:53:55 56° 140° (SE) 22:57:13 145.800 FM
UKube-1 01 Aug 23:14:12 23:17:03 17° 267° (W) 23:19:56 145.840 MHz, 145.915 MHz
PCSat 01 Aug 23:18:32 23:20:59 13° 103° (ESE) 23:23:27 145.825 MHz
Oscar 11 01 Aug 23:56:13 23:57:52 12° 270° (W) 23:59:31 145.825 FM, Beacon 2401.500 USB
UOSAT-12 02 Aug 00:22:23 00:25:50 20° 249° (WSW) 00:29:15 437.025 FM, 437.400 FM
Sapphire 02 Aug 00:25:32 00:30:43 50° 113° (ESE) 00:35:56 437.095 MHz 1200 baud AX-25 AFSK
ISS 02 Aug 00:27:59 00:30:50 25° 338° (NNW) 00:33:41 145.800 FM
FUNcube-1 02 Aug 00:28:48 00:31:02 14° 268° (W) 00:33:14 145.950 - 145.970 MHz USB
RS-15 02 Aug 00:36:35 00:45:55 33° 255° (WSW) 00:55:34 29.354 - 29.394 USB, Beacon 29.352 USB
PCSat 02 Aug 00:58:14 01:03:38 82° 300° (WNW) 01:09:06 145.825 MHz
